�N����,����,�~����,�C��,���x,�C��,����,���ϕ���,�ő�u�ԕ���,�ő厞����,���˗�,�I�_���x,�n�����x,�ő啗���N��,DTYPE
"17/08/06","00:10",0.0,25.2,94.4,999.3,316.1,0.5,0.6,330.7,0.00,24.3,26.1,"00:08:00",1
"17/08/06","00:20",0.0,25.2,94.4,999.6,307.4,0.2,0.6,304.4,0.00,24.3,26.2,"00:15:44",1
"17/08/06","00:30",0.0,25.3,94.5,999.6,291.4,0.2,0.6,267.3,0.00,24.4,26.2,"00:26:40",1
"17/08/06","00:40",0.0,25.3,94.6,999.3,307.4,0.7,1.2,308.5,0.00,24.4,26.0,"00:31:12",1
"17/08/06","00:50",0.0,25.2,94.5,999.3,288.7,0.5,0.8,264.0,0.00,24.3,26.2,"00:40:16",1
"17/08/06","01:00",0.0,25.1,94.6,999.6,292.9,0.6,1.0,315.8,0.00,24.2,26.0,"00:54:16",1
"17/08/06","01:10",0.0,25.0,94.8,999.6,319.9,0.6,1.1,333.2,0.00,24.1,26.1,"01:09:04",1
"17/08/06","01:20",0.0,25.0,94.7,999.6,332.7,0.7,1.2,345.4,0.00,24.1,25.9,"01:16:24",1
"17/08/06","01:30",0.0,25.0,94.8,999.6,272.6,0.6,1.0,239.6,0.00,24.1,25.9,"01:22:08",1
"17/08/06","01:40",0.0,24.9,94.9,999.1,307.9,0.6,1.1,340.3,0.00,24.1,25.9,"01:35:20",1
"17/08/06","01:50",0.0,24.8,94.9,999.3,304.8,0.5,0.6,313.6,0.00,24.0,25.9,"01:41:12",1
"17/08/06","02:00",0.0,24.7,95.0,999.3,324.7,0.3,0.8,327.8,0.00,23.9,25.9,"01:50:02",1
"17/08/06","02:10",0.0,24.7,95.0,999.3,326.4,0.6,0.9,340.8,0.00,23.9,25.9,"02:03:04",1
"17/08/06","02:20",0.0,24.6,95.0,999.6,313.5,0.6,1.0,339.3,0.00,23.8,25.8,"02:10:40",1
"17/08/06","02:30",0.0,24.5,95.3,999.8,315.5,0.2,0.6,256.7,0.00,23.7,25.7,"02:29:04",1
"17/08/06","02:40",0.0,24.5,95.3,999.1,330.8,0.7,1.2,347.5,0.00,23.7,25.9,"02:36:48",1
"17/08/06","02:50",0.0,24.5,95.3,999.6,325.5,0.5,1.2,339.3,0.00,23.7,25.7,"02:40:48",1
"17/08/06","03:00",0.0,24.4,95.4,999.3,292.7,0.2,0.6,325.5,0.00,23.7,25.7,"02:59:44",1
"17/08/06","03:10",0.0,24.3,95.4,999.1,331.7,0.6,0.8,342.9,0.00,23.6,25.7,"03:00:40",1
"17/08/06","03:20",0.0,24.3,95.5,999.8,327.2,0.7,0.9,314.5,0.00,23.6,25.8,"03:15:52",1
"17/08/06","03:30",0.0,24.4,95.6,999.3,297.3,0.2,0.6,322.0,0.00,23.7,25.7,"03:20:24",1
"17/08/06","03:40",0.0,24.4,95.7,999.3,288.5,0.2,0.6,297.2,0.00,23.7,25.6,"03:38:56",1
"17/08/06","03:50",0.0,24.4,95.5,999.1,321.8,0.3,0.6,334.9,0.00,23.7,25.5,"03:40:40",1
"17/08/06","04:00",0.0,24.3,95.7,999.1,311.3,0.3,0.6,312.5,0.00,23.6,25.7,"03:57:52",1
"17/08/06","04:10",0.0,24.2,95.8,999.1,321.9,0.5,0.6,321.3,0.00,23.5,25.5,"04:04:24",1
"17/08/06","04:20",0.0,24.3,95.7,999.1,307.7,0.5,0.8,348.5,0.00,23.6,25.5,"04:12:32",1
"17/08/06","04:30",0.0,24.2,96.0,999.3,332.0,0.3,0.8,335.2,0.00,23.6,25.7,"04:22:48",1
"17/08/06","04:40",0.0,24.2,95.8,999.1,282.2,0.2,0.6,239.5,0.00,23.5,25.5,"04:36:16",1
"17/08/06","04:50",0.0,24.1,95.8,998.9,302.2,0.5,0.8,320.0,0.00,23.4,25.7,"04:45:12",1
"17/08/06","05:00",0.0,24.1,95.9,999.1,334.5,0.5,0.8,336.4,0.00,23.4,25.7,"04:53:04",1
"17/08/06","05:10",0.0,24.1,96.0,998.9,324.4,0.7,1.0,321.9,0.00,23.5,25.2,"05:03:28",1
"17/08/06","05:20",0.0,24.2,96.1,999.6,274.0,0.5,0.9,263.3,0.00,23.6,25.3,"05:17:20",1
"17/08/06","05:30",0.0,24.2,95.9,999.1,323.4,0.5,0.8,319.9,0.00,23.5,25.3,"05:22:16",1
"17/08/06","05:40",0.0,24.3,96.1,999.1,329.9,0.6,1.2,8.9,0.00,23.7,25.3,"05:37:52",1
"17/08/06","05:50",0.0,24.3,96.2,999.3,297.7,0.6,1.0,320.1,0.00,23.7,25.2,"05:40:40",1
"17/08/06","06:00",0.0,24.4,96.2,999.6,309.0,0.2,0.8,328.4,0.00,23.8,25.2,"05:51:52",1
"17/08/06","06:10",0.0,24.6,96.2,999.6,330.3,0.6,1.1,338.1,0.00,24.0,25.3,"06:04:24",1
"17/08/06","06:20",0.0,24.7,96.2,999.6,337.1,0.3,0.9,343.0,0.00,24.1,25.5,"06:11:12",1
"17/08/06","06:30",0.0,25.1,96.2,999.6,348.5,0.3,0.8,348.1,0.01,24.5,25.2,"06:29:28",1
"17/08/06","06:40",0.0,25.7,96.1,999.6,11.5,0.3,0.8,350.9,0.02,25.1,25.2,"06:31:36",1
"17/08/06","06:50",0.0,26.3,95.8,999.6,2.1,0.1,0.4,334.0,0.03,25.6,25.4,"06:45:36",1
"17/08/06","07:00",0.0,26.2,95.2,999.3,355.6,0.1,0.6,28.6,0.05,25.4,25.3,"06:57:28",1
"17/08/06","07:10",0.0,26.7,94.7,999.1,70.5,0.2,0.5,118.4,0.07,25.8,25.3,"07:08:08",1
"17/08/06","07:20",0.0,27.5,92.2,999.1,97.4,0.1,0.4,112.4,0.09,26.2,25.4,"07:10:08",1
"17/08/06","07:30",0.0,28.4,88.1,999.1,27.4,0.3,0.9,354.2,0.11,26.3,25.5,"07:22:56",1
"17/08/06","07:40",0.0,29.0,85.9,999.1,26.3,0.3,0.9,76.4,0.14,26.4,25.4,"07:36:40",1
"17/08/06","07:50",0.0,28.8,85.6,998.9,302.5,0.5,1.2,213.7,0.16,26.2,25.7,"07:46:16",1
"17/08/06","08:00",0.0,29.5,82.4,998.6,53.1,0.5,1.1,358.8,0.18,26.2,25.7,"07:50:24",1
"17/08/06","08:10",0.0,29.6,80.3,998.6,15.2,0.6,1.2,69.0,0.21,25.9,25.6,"08:00:08",1
"17/08/06","08:20",0.0,30.1,79.3,998.6,352.2,0.3,1.2,1.3,0.23,26.2,25.6,"08:10:16",1
"17/08/06","08:30",0.0,30.4,77.1,998.6,35.2,0.7,2.1,23.6,0.25,26.0,25.7,"08:22:08",1
"17/08/06","08:40",0.0,31.0,75.7,999.1,88.2,0.3,1.2,132.8,0.27,26.2,25.7,"08:31:28",1
"17/08/06","08:50",0.0,31.1,75.1,999.3,13.1,1.1,2.2,6.0,0.30,26.2,25.8,"08:47:20",1
"17/08/06","09:00",0.0,31.6,73.8,999.6,117.5,0.7,2.5,39.6,0.33,26.4,25.7,"08:54:00",1
"17/08/06","09:10",0.0,31.7,71.5,999.6,125.4,1.0,2.7,149.8,0.36,25.9,25.9,"09:02:08",1
"17/08/06","09:20",0.0,32.3,67.2,1000.0,60.8,0.6,2.1,345.0,0.37,25.5,26.0,"09:16:56",1
"17/08/06","09:30",0.0,32.5,67.9,1000.5,39.7,1.0,2.4,346.6,0.39,25.8,26.0,"09:23:52",1
"17/08/06","09:40",0.0,32.9,66.3,1000.3,84.4,1.1,2.5,73.6,0.44,25.8,26.3,"09:30:08",1
"17/08/06","09:50",0.0,32.6,67.8,1000.3,91.7,1.0,2.2,70.9,0.36,25.9,26.2,"09:40:08",1
"17/08/06","10:00",0.0,33.0,63.1,1000.5,103.9,1.1,2.4,128.0,0.48,25.1,26.5,"09:51:12",1
"17/08/06","10:10",0.0,33.4,64.4,1000.5,92.8,1.0,2.9,177.1,0.44,25.8,26.6,"10:08:40",1
"17/08/06","10:20",0.0,33.0,64.7,1000.5,126.5,0.8,2.1,141.4,0.37,25.5,26.7,"10:10:32",1
"17/08/06","10:30",0.0,33.8,62.2,1000.3,104.4,1.1,2.2,96.0,0.54,25.6,26.8,"10:28:24",1
"17/08/06","10:40",0.0,34.0,61.0,1000.3,104.4,1.0,2.6,108.8,0.47,25.5,27.0,"10:37:36",1
"17/08/06","10:50",0.0,31.7,65.9,999.8,102.1,1.3,2.8,157.4,0.12,24.6,27.1,"10:46:56",1
"17/08/06","11:00",0.0,32.0,66.0,999.3,12.2,1.1,2.8,66.9,0.15,24.9,27.1,"10:50:16",1
"17/08/06","11:10",0.0,33.9,62.9,999.1,59.8,1.2,2.4,12.5,0.47,25.9,27.1,"11:03:12",1
"17/08/06","11:20",0.0,34.7,61.8,999.3,43.8,0.7,2.5,1.5,0.54,26.3,27.5,"11:12:56",1
"17/08/06","11:30",0.0,34.7,60.6,999.8,171.3,1.3,3.1,204.1,0.62,26.0,27.7,"11:26:48",1
"17/08/06","11:40",0.0,33.7,61.7,999.8,134.7,1.2,2.7,118.7,0.46,25.4,27.8,"11:36:08",1
"17/08/06","11:50",0.0,34.2,60.3,999.6,142.5,1.2,2.7,147.7,0.45,25.4,27.9,"11:44:24",1
"17/08/06","12:00",0.0,35.2,58.5,999.6,139.2,0.8,2.4,126.0,0.62,25.9,28.2,"11:50:32",1
"17/08/06","12:10",0.0,35.0,52.2,1000.0,175.5,1.6,3.2,221.3,0.65,23.8,28.6,"12:08:32",1
"17/08/06","12:20",0.0,35.1,53.3,999.8,159.7,1.1,3.1,209.4,0.56,24.2,28.6,"12:10:48",1
"17/08/06","12:30",0.0,33.5,58.9,999.6,139.3,1.2,3.1,134.1,0.26,24.4,28.6,"12:24:56",1
"17/08/06","12:40",0.0,35.3,53.9,999.1,172.2,1.2,2.7,202.5,0.61,24.6,28.6,"12:36:16",1
"17/08/06","12:50",0.0,35.1,51.9,998.9,173.1,1.3,3.3,185.2,0.48,23.8,28.8,"12:40:56",1
"17/08/06","13:00",0.0,34.5,53.5,998.6,245.1,1.0,2.7,240.3,0.37,23.7,29.0,"12:53:52",1
"17/08/06","13:10",0.0,35.1,51.7,998.2,136.3,1.1,3.2,120.9,0.46,23.7,29.2,"13:02:48",1
"17/08/06","13:20",0.0,35.8,54.4,998.4,155.8,1.7,3.5,131.2,0.58,25.2,29.3,"13:12:08",1
"17/08/06","13:30",0.0,36.0,49.3,998.4,178.2,1.8,3.5,199.3,0.59,23.7,29.3,"13:28:32",1
"17/08/06","13:40",0.0,35.8,48.5,998.4,181.1,1.6,3.1,221.7,0.49,23.3,29.3,"13:36:08",1
"17/08/06","13:50",0.0,35.6,50.6,997.9,183.9,1.6,3.9,213.0,0.41,23.8,29.3,"13:41:28",1
"17/08/06","14:00",0.0,35.9,48.5,997.9,204.1,2.3,4.8,201.5,0.48,23.4,29.2,"13:50:02",1
"17/08/06","14:10",0.0,36.4,46.7,997.7,191.9,2.1,4.3,188.0,0.58,23.2,29.7,"14:06:40",1
"17/08/06","14:20",0.0,36.1,53.1,997.7,172.1,1.6,3.2,115.4,0.43,25.1,29.6,"14:12:40",1
"17/08/06","14:30",0.0,36.1,49.9,997.7,173.2,1.5,3.6,195.3,0.47,24.0,29.4,"14:25:20",1
"17/08/06","14:40",0.0,36.2,54.9,997.7,144.0,1.7,4.3,203.4,0.53,25.7,29.4,"14:31:04",1
"17/08/06","14:50",0.0,36.5,51.2,997.9,123.4,1.0,2.2,124.7,0.46,24.8,29.4,"14:40:02",1
"17/08/06","15:00",0.0,35.5,56.1,997.4,130.1,1.5,3.2,134.9,0.38,25.4,29.7,"14:56:24",1
"17/08/06","15:10",0.0,35.6,55.4,997.0,118.9,1.1,2.8,127.7,0.26,25.3,29.7,"15:04:40",1
"17/08/06","15:20",0.0,35.7,56.0,996.7,132.2,1.2,2.9,120.3,0.33,25.6,29.8,"15:11:52",1
"17/08/06","15:30",0.0,36.7,54.4,996.7,143.0,1.5,3.1,185.8,0.45,26.0,29.8,"15:20:16",1
"17/08/06","15:40",0.0,34.7,57.1,996.5,122.6,1.8,3.4,141.0,0.16,25.0,29.7,"15:36:56",1
"17/08/06","15:50",0.0,35.5,58.0,996.5,104.5,1.2,3.3,110.3,0.36,26.0,29.6,"15:41:20",1
"17/08/06","16:00",0.0,35.6,55.8,996.3,91.6,1.2,2.7,42.2,0.27,25.4,29.7,"15:52:32",1
"17/08/06","16:10",0.0,34.5,57.4,995.8,105.1,1.1,2.8,116.9,0.06,24.9,29.7,"16:00:40",1
"17/08/06","16:20",0.0,34.6,57.9,995.3,46.9,1.5,2.7,26.8,0.20,25.1,29.6,"16:12:48",1
"17/08/06","16:30",0.0,34.2,58.8,995.1,61.5,1.3,3.5,83.1,0.05,25.0,29.5,"16:25:44",1
"17/08/06","16:40",0.0,33.3,61.8,994.8,53.8,1.5,3.2,59.9,0.01,25.0,29.5,"16:32:48",1
"17/08/06","16:50",0.0,32.4,66.6,994.6,77.5,2.2,7.5,185.9,0.00,25.4,29.6,"16:49:12",1
"17/08/06","17:00",0.0,28.5,78.7,994.4,226.4,4.0,8.0,230.6,0.00,24.5,29.2,"16:50:32",1
"17/08/06","17:10",0.0,27.0,84.6,995.1,267.1,1.7,3.9,250.4,0.00,24.2,29.1,"17:01:12",1
"17/08/06","17:20",0.0,26.3,87.2,994.6,333.9,2.2,5.6,346.8,0.00,24.0,28.9,"17:13:04",1
"17/08/06","17:30",0.0,26.2,88.6,995.1,347.4,1.3,4.4,7.1,0.00,24.2,28.5,"17:23:04",1
"17/08/06","17:40",0.0,26.3,88.6,994.8,53.0,0.7,2.2,11.4,0.00,24.3,28.3,"17:39:20",1
"17/08/06","17:50",0.0,26.1,89.1,995.3,325.1,1.1,3.1,315.3,0.00,24.2,28.4,"17:45:20",1
"17/08/06","18:00",0.0,26.1,89.6,995.1,313.9,0.8,2.1,352.8,0.00,24.3,28.2,"17:56:24",1
"17/08/06","18:10",0.0,26.1,89.9,994.8,306.9,1.1,2.4,327.3,0.00,24.4,28.2,"18:02:08",1
"17/08/06","18:20",0.0,26.1,90.0,995.1,284.2,0.7,2.0,343.9,0.00,24.4,28.1,"18:10:16",1
"17/08/06","18:30",0.0,26.3,90.6,995.3,321.5,0.5,1.4,348.7,0.01,24.7,28.0,"18:29:20",1
"17/08/06","18:40",0.0,26.5,90.7,994.8,358.6,0.6,1.4,4.6,0.01,24.9,28.0,"18:35:12",1
"17/08/06","18:50",0.0,26.6,90.1,994.8,23.1,0.5,1.2,0.3,0.01,24.9,28.0,"18:47:04",1
"17/08/06","19:00",0.0,26.4,90.2,994.8,323.7,0.7,1.3,320.9,0.00,24.7,27.8,"18:56:24",1
"17/08/06","19:10",0.0,26.3,90.0,994.8,310.5,0.6,1.3,314.9,0.00,24.6,27.8,"19:09:52",1
"17/08/06","19:20",0.0,26.0,90.4,994.8,319.7,1.0,1.8,296.2,0.00,24.3,27.7,"19:14:32",1
"17/08/06","19:30",0.0,25.8,90.7,994.6,269.7,0.7,1.6,256.6,0.00,24.2,27.7,"19:23:28",1
"17/08/06","19:40",0.0,25.7,90.8,994.8,290.3,0.6,1.4,332.9,0.00,24.1,27.6,"19:36:40",1
"17/08/06","19:50",0.0,25.6,91.2,994.8,279.7,0.5,1.1,311.6,0.00,24.1,27.6,"19:42:00",1
"17/08/06","20:00",0.0,25.5,91.3,994.6,257.7,0.3,0.8,250.9,0.00,24.0,27.6,"19:54:16",1
"17/08/06","20:10",0.0,25.6,92.0,995.3,309.9,0.5,1.0,298.8,0.00,24.2,27.5,"20:01:04",1
"17/08/06","20:20",0.0,25.6,92.1,995.3,344.6,0.6,1.3,343.2,0.00,24.3,27.4,"20:17:20",1
"17/08/06","20:30",0.0,25.5,92.3,995.8,303.6,0.5,0.9,312.8,0.00,24.2,27.4,"20:28:08",1
"17/08/06","20:40",0.0,25.4,92.3,995.6,269.3,0.5,0.9,260.3,0.00,24.1,27.3,"20:34:40",1
"17/08/06","20:50",0.0,25.4,92.6,995.6,300.9,0.3,1.0,321.4,0.00,24.2,27.1,"20:46:48",1
"17/08/06","21:00",0.0,25.3,92.8,996.0,312.7,0.5,1.1,332.2,0.00,24.1,27.2,"20:52:48",1
"17/08/06","21:10",0.0,25.3,92.8,996.0,275.7,0.3,0.9,267.7,0.00,24.1,27.0,"21:03:44",1
"17/08/06","21:20",0.0,25.2,92.9,996.0,303.7,0.5,1.3,259.1,0.00,24.0,27.1,"21:10:16",1
"17/08/06","21:30",0.0,25.2,93.1,996.3,332.8,0.7,1.2,8.9,0.00,24.0,27.0,"21:21:44",1
"17/08/06","21:40",0.0,25.2,93.3,995.8,298.4,0.7,1.3,234.7,0.00,24.1,27.2,"21:34:16",1
"17/08/06","21:50",0.0,25.1,93.4,996.0,334.2,0.8,1.3,313.3,0.00,24.0,26.8,"21:46:40",1
"17/08/06","22:00",0.0,25.1,93.5,996.0,304.0,0.8,1.3,335.0,0.00,24.0,27.0,"21:51:20",1
"17/08/06","22:10",0.0,25.1,93.5,996.3,298.0,0.6,1.3,252.0,0.00,24.0,26.9,"22:00:08",1
"17/08/06","22:20",0.0,25.1,93.5,996.0,269.0,0.7,1.2,336.1,0.00,24.0,26.7,"22:10:56",1
"17/08/06","22:30",0.0,25.1,93.5,996.0,317.0,0.8,1.7,234.9,0.00,24.0,26.8,"22:27:44",1
"17/08/06","22:40",0.0,25.0,93.4,995.8,312.7,0.5,1.4,337.3,0.00,23.9,26.8,"22:39:52",1
"17/08/06","22:50",0.0,25.0,93.4,996.0,312.8,1.0,2.0,322.3,0.00,23.9,26.6,"22:46:08",1
"17/08/06","23:00",0.0,25.0,93.3,996.0,309.1,0.6,1.3,298.1,0.00,23.9,26.7,"22:58:56",1
"17/08/06","23:10",0.0,25.0,93.4,996.3,290.5,0.6,1.7,311.5,0.00,23.9,26.7,"23:00:08",1
"17/08/06","23:20",0.0,25.1,93.4,996.0,328.3,0.8,1.1,321.7,0.00,24.0,26.7,"23:11:20",1
"17/08/06","23:30",0.0,25.0,93.3,996.0,289.0,1.0,1.6,302.0,0.00,23.9,26.4,"23:28:08",1
"17/08/06","23:40",0.0,25.1,93.2,996.0,307.6,1.0,1.9,244.4,0.00,24.0,26.4,"23:31:28",1
"17/08/06","23:50",0.0,25.1,93.1,996.0,339.5,0.8,1.8,0.8,0.00,23.9,26.6,"23:45:12",1
"17/08/06","24:00",0.0,25.0,93.4,995.6,330.5,0.7,1.2,349.4,0.00,23.9,26.6,"23:56:56",1
